Regional Weather Roundup
Issued by NWS

Home | Current Version | Previous Version | Graphics & Text | Print | Product List | Glossary On
Versions: 1 2 3 4 5 6 7 8 9 10 11 12 13 14 15 16 17 18 19 20 21 22 23 24 25 26 27 28 29 30 31 32 33 34 35 36 37 38 39 40 41 42 43 44 45 46 47 48 49 50
000
ASUS43 KOAX 220202
RWRNE

WEATHER ROUNDUP FOR NEBRASKA
NATIONAL WEATHER SERVICE OMAHA NE
900 PM CDT THU SEP 21 2017

NOTES: SATELLITE DATA IS BEING USED TO AUGMENT CLOUD COVER ABOVE
       12000 FEET.
       "FAIR" INDICATES FEW OR NO CLOUDS BELOW 12,000 FEET WITH NO
       SIGNIFICANT WEATHER AND/OR OBSTRUCTIONS TO VISIBILITY.


NEZ001>004-019>022-054>056-220300-
NEBRASKA PANHANDLE

CITY           SKY/WX    TMP DP  RH WIND       PRES   REMARKS
SCOTTSBLUFF    CLEAR     68  42  38 E9        29.62S
ALLIANCE       CLEAR     64  45  49 E10       29.64S
CHADRON        CLEAR     70  37  29 NE13      29.65R
GORDON         FAIR      63  46  54 CALM      29.66S
KIMBALL        CLEAR     66  39  37 E7        29.68S
SIDNEY         CLEAR     66  34  30 S8        29.66S
$$

NEZ057>060-069>072-079>082-220300-
SOUTHWEST NEBRASKA

CITY           SKY/WX    TMP DP  RH WIND       PRES   REMARKS
NORTH PLATTE   CLEAR     84  42  22 SE9       29.63R
IMPERIAL       CLEAR     79  39  23 SE13      29.63R
LEXINGTON      CLEAR     75  46  34 SE8       29.66S
MCCOOK           N/A     82  42  24 S13       29.64S
OGALLALA       CLEAR     79  41  25 SE8       29.62R
$$

NEZ005>010-023>029-035>040-094-220300-
NORTH CENTRAL NEBRASKA

CITY           SKY/WX    TMP DP  RH WIND       PRES   REMARKS
VALENTINE      CLEAR     74  51  44 NE5       29.64S
AINSWORTH      CLEAR     73  58  59 E9        29.65S
BROKEN BOW     CLEAR     81  48  31 S10       29.66R
O`NEILL        CLEAR     81  67  63 SE12      29.67R
ORD            CLEAR     82  63  52 SE14G21   29.66R
THEDFORD       CLEAR     72  52  49 SE9       29.65S
$$

NEZ041-046>049-061>064-073>077-083>087-220300-
SOUTH CENTRAL NEBRASKA

CITY           SKY/WX    TMP DP  RH WIND       PRES   REMARKS
GRAND ISLAND   CLEAR     83  69  62 SE13      29.70R
AURORA         CLEAR     83  68  60 SE15      29.70S
HASTINGS       CLEAR     85  66  53 SE12      29.70R
HEBRON         CLEAR     87  70  57 S16G23    29.72R HX  92
HOLDREGE       CLEAR     72  44  36 SE7       29.68R
KEARNEY        CLEAR     80  61  52 SE10      29.68R
YORK           CLEAR     84  70  61 SE13      29.72R
$$

NEZ011>018-030>034-042>045-220300-
NORTHEAST NEBRASKA

CITY           SKY/WX    TMP DP  RH WIND       PRES   REMARKS
NORFOLK        CLEAR     82  70  66 SE16G23   29.71R
ALBION         CLEAR     82  70  67 SE12      29.70R
BLAIR          CLEAR     84  73  68 S18G25    29.77S HX  91
COLUMBUS       CLEAR     84  72  67 SE13G20   29.72R
FREMONT        CLEAR     83  71  66 SE12G17   29.75R
TEKAMAH        CLEAR     81  72  74 S9        29.74R
WAYNE          CLEAR     81  75  82 S16       29.72R
$$

NEZ050>053-065>068-078-088>093-220300-
SOUTHEAST NEBRASKA

CITY           SKY/WX    TMP DP  RH WIND       PRES   REMARKS
LINCOLN        CLEAR     86  73  65 SE21G28   29.75R HX  93
OMAHA EPPLEY   CLEAR     86  72  62 S15       29.77R HX  92
BEATRICE       CLEAR     85  74  68 SE18G26   29.76R HX  93
FALLS CITY     CLEAR     83  73  72 S16G26    29.79R
NEBRASKA CITY  CLEAR     83  75  75 S14G22    29.80R HX  91
PLATTSMOUTH    CLEAR     83  74  72 S14G20    29.79R HX  90
$$

NEZ044-045-051>053-067-220300-
OMAHA AREA

CITY           SKY/WX    TMP DP  RH WIND       PRES   REMARKS
OMAHA EPPLEY   CLEAR     86  72  62 S15       29.77R HX  92
BLAIR          CLEAR     84  73  68 S18G25    29.77S HX  91
FREMONT        CLEAR     83  71  66 SE12G17   29.75R
MILLARD        CLEAR     86  75  69 SE14G20   29.77R HX  94
OFFUTT AFB     CLEAR     84  72  67 SE15      29.77R
PLATTSMOUTH    CLEAR     83  74  72 S14G20    29.79R HX  90
WAHOO          FAIR      83  72  69 SE14      29.75R
$$



USA.gov is the U.S. government's official web portal to all federal, state and local government web resources and services.